Location: Unspecified
(14.3500°N, 0.0000°E)
Time: 11:47:52
(UTC+00:00)

ISS - Visible Passes

Search period start: 24 April 2019 00:00
Search period end: 04 May 2019 00:00
Orbit: 408 x 410 km, 51.6° (Epoch: 24 April)

Date Brightness Start Highest point End Pass type
(mag) Time Alt. Az. Time Alt. Az. Time Alt. Az.
24 Apr -2.7 05:04:36 13° WSW 05:07:01 30° NW 05:09:57 10° NNE visible
25 Apr -3.8 04:16:27 74° N 04:16:27 74° N 04:19:30 10° NE visible
26 Apr -0.4 03:28:09 12° ENE 03:28:09 12° ENE 03:28:29 10° ENE visible
27 Apr -1.4 04:12:30 15° NNW 04:12:30 15° NNW 04:13:33 10° N visible
